Simultaneous Nadir Overpasses (SNOs) Predictions

Prediction of SNOs between GOES-17 and METOP-B Satellite Orbit:

Table of predicted SNOs for the next 14.0 days since TLE Epoch: 3/16/2024
Index Date Time (GOES-17) GOES-17 Lat,Lon METOP-B Lat,Lon Distance(km) Time Diff (sec)
1 03/16/2024 04:37:18 0.01,-104.69 -0.68,-107.70 343.68 80
2 03/17/2024 04:13:59 0.02,-104.69 0.45,-102.72 224.06 80
3 03/18/2024 16:32:52 -0.02,-104.68 0.58,-107.29 297.93 80
4 03/19/2024 16:14:53 -0.02,-104.68 -0.56,-102.31 270.39 80
5 03/21/2024 04:33:54 -0.00,-104.68 -0.50,-106.91 254.07 80
6 03/22/2024 04:10:34 -0.01,-104.68 0.59,-101.92 314.32 80
7 03/23/2024 16:29:26 0.01,-104.68 0.44,-106.49 207.10 80
8 03/24/2024 16:11:28 0.01,-104.68 -0.71,-101.51 361.67 80
9 03/26/2024 04:30:28 -0.01,-104.69 -0.33,-106.12 162.52 80
10 03/27/2024 04:07:09 -0.01,-104.69 0.76,-101.13 406.00 80
11 03/28/2024 16:26:01 0.02,-104.69 0.26,-105.70 115.62 80
12 03/29/2024 16:08:02 0.02,-104.69 -0.84,-100.71 452.90 80
